Other Public Products
Issued by NWS Grand Forks, ND

Home | Current Version | Previous Version | Graphics & Text | Print | Product List | Glossary On
Versions: 1 2 3 4 5 6 7 8 9 10 11 12 13 14 15 16 17 18 19 20 21 22 23 24 25 26 27 28 29 30 31 32 33 34 35 36 37 38 39 40 41 42 43 44 45 46 47 48 49 50
000
FPUS83 KFGF 290910
OPUFGF
PRAIRIE TO PINES WEATHER ROUNDUP
NATIONAL WEATHER SERVICE EASTERN NORTH DAKOTA/GRAND FORKS ND
400 AM CDT FRI APR 29 2016

 **SATELLITE DATA USED TO AUGMENT SKY COVER AT AUTOMATED STATIONS**
 *****  WEATHER ACROSS EASTERN NORTH DAKOTA  *****

CITY           SKY/WX    TMP DP  RH WIND       PRES   REMARKS
GRAND FORKS    CLOUDY    32  26  78 N5        30.18R
GRAND FORKS AF CLOUDY    34  28  78 N6        30.18R
GRAND CITY NWS NOT AVBL
BUXTON         NOT AVBL
DEVILS LAKE    MOCLDY    35  24  64 CALM      30.19R
FARGO          CLOUDY    36  32  85 E5        30.15R
WAHPETON ARPT  CLOUDY    36  32  87 S6        30.16S
$$

 *****  WEATHER ACROSS CENTRAL AND WESTERN NORTH DAKOTA  *****

CITY           SKY/WX    TMP DP  RH WIND       PRES   REMARKS
JAMESTOWN      CLOUDY    34  27  75 NW6       30.16R
BISMARCK       MOCLDY    37  31  78 CALM      30.17R
MINOT          CLOUDY    40  19  43 N3        30.19R
MINOT AFB      CLOUDY    38  22  51 NE6       30.19R
GARRISON         N/A     33  24  69 CALM      30.17R
WILLISTON      CLOUDY    35  25  66 NE6       30.16S
DICKINSON      PTCLDY    35  25  66 E7        30.12R
HETTINGER      CLOUDY    38  35  89 CALM      30.13S
$$

 *****  OTHER OBSERVATIONS NORTHEAST NORTH DAKOTA  *****

CITY           SKY/WX    TMP DP  RH WIND       PRES   REMARKS
WALHALLA       FAIR      32  23  69 NW7       30.23R
LANGDON        FAIR      36  21  55 NE8       30.20S
CAVALIER       FAIR      36  25  64 NW7       30.22R
GRAFTON        FAIR      36  28  75 NW8       30.22R
CANDO          FAIR      32  21  64 N8        30.22S WCI  25
FORT TOTTEN      N/A     39  26  58 NE3       29.95S
ROLLA          FAIR      32  18  55 N9        30.22R WCI  24
RUGBY          FAIR      36  23  60 NE5       30.20R
 ***** THE ABOVE OBSERVATIONS ARE NON NWS ARE NOT QUALITY
        CONTROLLED AND MAY MIS-REPORT RAIN FOR SNOW...
$$

 *****  OTHER OBSERVATIONS SOUTHEAST NORTH DAKOTA *****

CITY           SKY/WX    TMP DP  RH WIND       PRES   REMARKS
COOPERSTOWN    NOT AVBL
VALLEY CITY    FAIR      39  27  60 N5        30.17R
OAKES            N/A    N/A N/A N/A MISG        N/A
GWINNER        FAIR      39  37  93 W8        30.15S
SHEYENNE NWR     N/A     32  31  94 W6        29.95S
BUFFALO        NOT AVBL
WYNDMERE         N/A     37  36  93 SW5         N/A
 ***** THE ABOVE OBSERVATIONS ARE NON NWS ARE NOT QUALITY
       CONTROLLED AND MAY MIS-REPORT RAIN FOR SNOW...
$$

  *****  WEATHER ACROSS NORTHERN MINNESOTA  *****

CITY           SKY/WX    TMP DP  RH WIND       PRES   REMARKS
FLAG ISLAND    CLEAR     39  34  81 N6        30.20R
WARROAD        CLEAR     34  30  86 CALM      30.21R
ROSEAU         CLOUDY    36  28  75 N3        30.21R
HALLOCK        CLOUDY    36  27  69 NE3       30.20R
THF RVR FALLS  PTCLDY    37  27  65 E6        30.19R
HALSTAD        NOT AVBL
FOSSTON        CLOUDY    36  27  69 E6        30.17R
BAUDETTE       CLOUDY    32  27  81 CALM      30.19R
WASKISH        PTCLDY    36  30  80 NE3       30.17R
CROOKSTON      CLOUDY    39  28  65 E8        30.18R
$$
  *****  WEATHER ACROSS CENTRAL AND WEST MINNESOTA  *****

CITY           SKY/WX    TMP DP  RH WIND       PRES   REMARKS
BEMIDJI        CLOUDY    34  27  76 CALM      30.15R
PARK RAPIDS    CLOUDY    35  31  85 CALM      30.15R
WADENA         CLOUDY    34  32  93 CALM      30.15S
DETROIT LAKES  CLOUDY    37  36  93 CALM      30.16R
MOORHEAD       CLOUDY    37  34  87 SE5       30.16R
FERGUS FALLS   CLOUDY    37  37 100 SE3       30.15R
ELBOW LAKE     FAIR      40  38  95 CALM      30.16S
MORRIS MN      CLOUDY    37  36  93 SW5       30.16R
STAPLES        CLOUDY    36  36 100 CALM      30.15S
WHEATON        CLOUDY    41  39  93 S3        30.19R
$$
  *****  WEATHER ELSEWHERE ACROSS MINNESOTA  *****

CITY           SKY/WX    TMP DP  RH WIND       PRES   REMARKS
DULUTH         CLOUDY    32  25  75 N8        30.14R WCI  25
INTRNTL FALLS  PTCLDY    31  27  85 N3        30.17R
ELY            CLOUDY    36  30  80 CALM      30.16S
CLOQUET        CLOUDY    28  25  86 NW6       30.15R WCI  22
BRAINERD       CLOUDY    31  25  78 CALM      30.16R
HIBBING        CLOUDY    25  24  96 CALM      30.16R
ALEXANDRIA     CLOUDY    34  34 100 CALM      30.16R FOG
SAINT CLOUD    CLOUDY    35  35 100 CALM      30.15R FOG
MINNEAPOLIS    CLOUDY    36  34  92 N3        30.16R
$$

  *****  WEATHER ACROSS SOUTH DAKOTA  *****

CITY           SKY/WX    TMP DP  RH WIND       PRES   REMARKS
SIOUX FALLS    CLOUDY    40  37  89 NE3       30.13R
BROOKINGS      MOCLDY    36  34  92 NE5       30.13F
WATERTOWN      MOCLDY    35  33  92 N3        30.14S
HURON          MOCLDY    36  34  92 CALM      30.15S
SISSETON         N/A     41  37  86 SW6       30.16R
ABERDEEN       MOCLDY    37  34  89 CALM      30.16F
MITCHELL       CLOUDY    40  37  89 NE5       30.14F
PIERRE         CLOUDY    40  38  93 N6        30.11S
MOBRIDGE       MOCLDY    39  37  92 CALM      30.12S
RAPID CITY     CLOUDY    36  34  92 NE5       30.10S
$$

  *****  SOME WEATHER IN NEARBY STATES *****

CITY           SKY/WX    TMP DP  RH WIND       PRES   REMARKS
GLASGOW MT     CLOUDY    38  34  85 NE9       30.12F
GREAT FALLS MT CLOUDY    37  33  85 E6        29.99F
CHEYENNE WY    LGT SNOW  32  30  92 SE13      30.02S FOG     WCI  22
SCOTTSBLUFF NE CLOUDY    34  32  92 E10       30.08F
OMAHA NE       CLOUDY    45  42  89 N5        30.12S
DES MOINES IA  CLOUDY    48  43  82 NW6       30.12R
DAVENPORT IA   CLOUDY    43  42  97 NE10      30.07R FOG
CHICAGO IL     CLOUDY    43  41  93 N7        30.02R FOG
EAU CLAIRE WI  CLOUDY    39  38  96 NW3       30.14R
LA CROSSE WI   CLOUDY    40  36  86 N6        30.12R
$$

  *****  SOME NATIONAL WEATHER *****

CITY           SKY/WX    TMP DP  RH WIND       PRES   REMARKS
LA GUARDIA NY  CLOUDY    50  34  54 E8        30.06R
RALEIGH NC     CLOUDY    62  60  93 N5        29.94S
ATLANTA GA     CLEAR     64  57  78 SW3       30.00R
NEW ORLEANS LA PTCLDY    74  70  87 E6        29.89F
OKLAHOMA CITY  LGT RAIN  57  54  89 NE14      29.83S
ALBUQUERQUE NM LGT RAIN  50  33  52 W15G30    29.87R
SALT LAKE CITY CLOUDY    45  34  65 N6        29.85R
LOS ANGELES CA MOCLDY    58  51  78 E5        29.98R
BOISE ID       CLOUDY    52  37  56 W12       29.89S
SEATTLE WA     CLOUDY    51  43  74 S8        30.10S
$$

*** WEATHER ACROSS MANITOBA...SASKATCHEWAN AND ONTARIO ***
                ***ONTARIO***

CITY           SKY/WX    TMP DP  RH WIND       PRES   REMARKS
GERALDTON      MOCLDY    28  25  86 N2        30.19R
THUNDER BAY    CLEAR     27  27 100 W3        30.19R
SIOUX LOOKOUT  CLOUDY    39  30  70 N5        30.21R
TORONTO        MOCLDY    41  23  48 E8        30.07S
BIG TROUT LK   CLOUDY    28  27  93 CALM      30.30R
PICKLE LAKE    NOT AVBL
DRYDEN         CLOUDY    41  30  65 NE6       30.20R
KENORA         CLEAR     36  28  75 NE6       30.22R
$$
                *** MANITOBA***

CITY           SKY/WX    TMP DP  RH WIND       PRES   REMARKS
BRANDON        PTCLDY    30  18  59 NE9       30.24S WCI  22
DAUPHIN        CLEAR     25  18  74 SW7       30.29R WCI  17
ISLAND LAKE    CLEAR     30  16  55 CALM      30.35R
PILOT MOUND      N/A     32  18  55 NE8         N/A  WCI  25
THE PAS        CLEAR     36  19  51 SE5       30.29S
THOMPSON       MOCLDY    37  16  41 VRB2      30.33R
WINNIPEG       CLEAR     30  21  69 NE7       30.24R WCI  23
LYNN LAKE      CLOUDY    39  25  56 SW5       30.20S
CHURCHILL      CLEAR     21  19  93 E7        30.45S WCI  13
GILLAM         MOCLDY    27  19  74 VRB2      30.40S
$$
                ***SASKATCHEWAN***

CITY           SKY/WX    TMP DP  RH WIND       PRES   REMARKS
ESTEVAN        MOCLDY    34  18  51 E8        30.20S
KINDERSLEY     PTCLDY    37  21  52 SE14      30.09S
LLOYDMINSTER   MOCLDY    39  27  60 SE9       30.08F
PRINCE ALBERT  PTCLDY    34  30  86 E7        30.20S
REGINA         PTCLDY    34  16  47 SE12      30.20S
YORKTON        CLEAR     30  23  74 S2        30.25S   C1F1C2F2C3F3C4F4C5F5C6F6C7F7C8F8C9F9CaFaCbFbCcFcCdFdCe!


USA.gov is the U.S. government's official web portal to all federal, state and local government web resources and services.